EHI
0 0 0 0 0 0 0 0 0 0 0 0 0 0 0 0 0 1 2 4 4 2 2 4 4 3 3 3 5 8 7 4 3 2 2 2 1 0 0 0 0 0 0
0 0 0 0 0 0 0 0 0 0 0 0 0 0 0 0 0 0 1 2 2 1 1 1 2 2 1 2 6 8 6 3 3 2 1 1 1 1 0 0 0 0 0
0 0 0 0 0 0 0 0 0 0 0 0 0 0 0 0 0 0 0 0 0 0 0 0 0 0 0 1 4 5 4 5 5 2 0 0 1 2 1 0 0 0 0
0 0 0 1 1 1 0 0 0 0 0 0 0 0 0 0 0 0 0 0 0 0 0 0 0 0 0 0 1 2 3 5 5 2 0 0 0 1 0 0 0 0 0
0 0 2 5 5 3 2 1 0 0 0 0 0 0 0 0 0 0 0 0 0 0 0 0 0 0 0 0 0 0 1 3 3 1 0 0 0 0 0 0 0 0 0
0 1 5 11 13 10 6 3 1 1 0 0 0 0 0 0 0 0 0 0 0 0 0 0 0 0 0 0 0 0 0 1 1 0 0 0 0 0 0 0 0 0 0
0 0 5 14 18 17 13 7 3 1 0 0 0 0 0 0 0 0 0 0 0 0 0 0 0 0 0 0 0 0 0 0 0 0 0 0 0 0 0 0 0 0 0
0 0 3 10 14 14 13 8 3 1 0 0 0 0 0 0 0 0 0 0 0 0 0 0 0 0 0 0 0 0 0 0 0 0 0 0 0 0 0 0 0 0 0
0 0 2 4 6 6 6 5 2 0 0 0 0 0 0 0 0 0 0 0 0 0 0 0 0 0 0 0 0 0 0 0 0 0 0 0 0 0 0 0 0 0 0
0 0 1 2 2 1 1 2 2 0 0 0 0 0 0 0 0 0 0 0 0 0 0 0 0 0 0 0 0 0 0 0 0 0 0 0 0 0 0 0 0 0 0
0 0 0 1 1 0 0 1 1 0 0 0 0 0 0 0 0 0 0 0 0 0 0 0 0 0 0 0 0 0 0 0 0 0 0 0 0 0 0 0 0 0 0
0 0 0 0 0 0 0 0 0 0 0 0 0 0 0 0 0 0 0 0 0 0 0 0 0 0 0 0 0 0 0 0 0 0 0 0 0 0 0 0 0 0 0
0 0 0 0 0 0 0 0 0 0 0 1 1 1 0 0 0 0 0 0 0 0 0 0 0 0 0 0 0 0 0 0 0 0 1 1 1 0 0 0 0 0 0
0 0 0 0 0 0 0 0 0 0 0 0 0 0 0 0 0 0 0 0 0 0 0 0 0 0 0 0 0 0 0 0 0 0 1 2 2 1 0 0 0 0 0
0 0 0 0 0 0 0 0 0 0 0 0 0 0 0 0 0 0 0 0 0 0 0 0 0 0 0 0 0 0 0 0 0 0 1 2 3 1 0 0 0 0 0
0 0 0 0 0 0 0 0 0 0 0 0 0 0 0 0 0 0 0 0 0 0 0 0 0 0 0 0 0 0 0 0 0 0 0 1 1 0 0 0 0 0 0
0 0 0 0 0 0 0 0 0 0 0 0 0 0 0 0 0 0 0 0 0 0 0 0 0 0 0 0 0 0 0 0 0 0 0 0 0 0 0 0 0 0 0
0 0 0 0 0 0 0 0 0 0 0 0 0 0 0 0 0 0 0 0 0 0 0 0 0 0 0 0 0 0 0 0 0 0 0 0 0 0 0 0 0 0 0
0 0 0 0 0 0 0 0 0 0 0 0 0 0 0 0 0 0 0 0 0 0 0 0 0 0 0 0 0 0 0 0 0 0 0 0 0 0 0 0 0 0 0
0 0 0 0 0 0 0 0 0 0 0 0 0 0 0 0 0 0 0 0 0 0 0 0 0 0 0 0 0 0 0 0 0 0 0 0 0 0 0 0 0 0 0
0 0 0 0 0 0 0 0 0 0 0 0 0 0 0 0 0 0 0 0 0 0 0 1 0 0 0 0 0 0 0 0 0 0 0 0 0 0 0 0 0 0 0
0 0 0 0 0 0 0 0 0 0 0 0 0 0 0 0 0 0 0 0 0 0 0 0 0 0 0 0 0 0 0 0 0 0 0 0 0 0 0 0 0 0 0
0 0 0 0 0 0 0 0 0 0 0 0 0 0 0 0 0 0 0 0 0 0 0 0 0 0 0 0 0 0 0 0 0 0 0 0 0 0 0 0 0 0 0
0 0 0 0 0 0 0 0 0 0 0 0 0 0 0 0 0 0 0 0 0 0 0 0 0 0 0 0 0 0 0 0 0 0 0 0 0 0 0 0 0 0 0
0 0 0 0 0 0 0 0 0 0 0 0 0 0 0 0 0 0 0 0 0 0 0 0 0 0 0 0 0 0 0 0 0 0 0 0 0 0 0 0 0 0 0
0 0 0 0 0 0 0 0 0 0 0 0 0 0 0 0 0 0 0 0 0 0 0 0 0 0 0 0 0 0 0 0 0 0 0 0 0 0 0 0 0 0 0
Wind_Speed
5 6 11 12 12 11 11 11 10 10 9 9 8 8 7 7 7 7 7 7 6 6 6 6 7 7 7 7 8 8 9 9 9 9 9 10 10 10 10 10 9 6 10
9 7 12 12 12 11 11 11 10 10 9 8 8 7 7 6 6 6 6 6 6 5 5 5 6 6 6 6 6 7 8 8 7 8 8 8 10 10 10 9 9 6 10
11 8 10 12 12 11 11 10 10 9 9 8 7 7 6 6 6 5 5 5 5 5 5 5 5 6 6 5 5 5 6 7 6 6 7 3 5 9 9 9 9 9 9
12 8 8 12 11 11 10 9 9 8 8 7 7 6 6 6 5 5 4 4 4 4 4 4 4 5 5 4 3 4 5 6 7 7 4 2 3 8 8 8 8 8 8
11 9 9 13 12 11 10 9 8 8 8 7 7 6 6 6 5 5 4 4 4 4 4 4 4 5 5 4 3 3 4 5 7 6 4 3 3 7 8 8 7 7 7
11 10 11 14 13 12 11 10 9 9 8 7 7 6 6 6 5 5 4 4 4 3 4 3 3 4 4 4 2 2 3 5 5 3 3 3 2 7 8 8 7 7 7
11 10 11 16 15 14 12 12 11 10 9 8 8 7 7 6 6 5 5 5 4 4 4 4 4 4 4 4 2 1 1 3 3 3 3 2 3 7 8 7 7 7 7
9 8 8 14 14 13 13 13 12 12 11 10 9 9 8 7 7 6 6 5 5 5 5 4 4 5 5 4 4 2 1 1 3 3 3 3 5 8 7 7 7 7 7
4 3 2 5 8 11 12 13 13 13 12 11 11 10 9 9 8 8 7 7 6 6 6 6 6 6 6 5 5 4 2 2 3 2 4 3 6 8 7 7 7 7 7
8 6 3 1 1 3 6 12 13 13 13 13 12 12 11 10 10 9 9 8 8 8 8 7 7 7 7 7 7 6 3 2 2 3 3 4 9 9 8 7 7 7 7
8 6 5 5 4 3 4 7 10 11 12 12 10 12 10 5 5 6 9 10 10 10 9 9 9 9 8 7 8 7 3 1 2 3 3 7 10 9 9 8 7 7 7
5 4 4 4 5 5 4 3 2 3 4 5 4 6 5 4 5 7 8 13 13 12 11 11 10 9 7 3 5 6 1 2 2 3 4 11 11 10 9 9 8 7 7
3 3 3 2 3 3 3 2 1 1 2 3 4 5 5 4 4 5 4 7 8 10 6 7 7 4 3 3 3 3 3 3 3 3 5 12 12 11 10 9 8 8 7
4 4 3 2 2 2 2 2 2 1 2 2 3 5 4 3 4 4 4 4 4 4 4 4 3 4 5 5 5 5 4 3 3 3 5 12 12 12 11 10 9 8 7
5 5 4 4 3 3 2 2 2 2 2 3 2 3 4 4 4 4 3 3 4 4 4 4 4 5 5 6 6 6 6 6 5 5 4 11 12 12 12 11 10 9 8
6 6 5 5 4 3 3 2 2 2 3 3 2 3 4 3 3 3 3 4 4 5 5 4 5 5 5 5 7 7 7 6 6 7 5 8 11 11 11 11 11 10 9
6 7 7 6 5 5 4 4 3 3 3 3 3 4 4 3 4 3 3 4 4 5 5 4 5 3 4 5 7 8 6 7 8 8 7 5 6 9 10 10 11 11 11
7 8 7 7 6 5 5 5 4 3 3 3 3 3 4 4 4 3 4 4 4 4 4 4 4 3 4 4 5 5 6 7 9 9 7 6 5 5 8 10 10 10 11
8 8 8 7 7 6 6 5 4 3 3 3 3 3 4 4 4 3 4 4 4 4 4 5 4 3 3 4 3 3 4 6 8 9 8 8 6 6 5 8 11 10 11
7 7 7 7 7 6 5 4 3 3 3 3 3 4 5 4 4 4 4 4 4 3 3 4 4 4 3 3 2 2 2 4 6 7 9 7 6 7 6 6 6 7 11
8 8 7 7 7 6 4 4 4 4 4 3 3 4 5 5 5 4 4 4 4 4 5 5 4 5 4 2 1 0 1 0 3 5 5 6 7 7 7 7 6 4 5
7 7 7 7 7 7 5 4 3 4 4 4 3 4 5 5 5 5 5 5 4 4 5 6 5 4 4 4 3 2 1 1 1 2 3 5 6 6 7 8 6 6 5
7 7 7 7 8 7 7 4 4 3 3 3 4 4 4 5 5 5 5 5 5 5 5 6 6 7 5 4 3 4 4 5 2 1 2 3 4 4 5 6 7 7 7
6 6 6 7 7 7 7 5 5 4 4 4 4 4 5 5 5 5 5 6 6 5 6 6 6 5 5 4 3 2 2 4 4 2 1 2 3 4 5 5 6 7 7
5 5 5 6 7 7 7 6 6 5 4 4 4 5 5 4 4 4 4 5 5 5 6 7 6 6 6 6 4 3 2 1 2 3 3 2 1 2 3 4 4 5 7
5 5 5 6 7 7 7 7 6 7 7 7 6 6 5 4 4 4 4 4 5 5 6 7 7 8 7 6 5 4 4 4 4 3 3 2 3 2 2 2 3 4 5
Wind_Direction
159 173 157 148 143 141 140 140 142 142 138 133 129 125 121 114 109 104 101 99 97 95 89 88 87 87 86 83 77 73 73 73 76 77 77 78 77 79 88 98 96 94 99
154 163 155 149 144 141 141 142 142 142 140 137 135 132 129 123 117 112 108 105 102 103 100 98 98 97 95 90 82 75 73 71 73 78 77 75 79 82 86 96 100 103 104
147 156 153 151 146 143 142 142 143 143 142 142 141 139 135 132 128 125 120 117 113 111 110 105 107 110 107 101 88 77 70 65 66 85 92 77 78 84 88 93 101 104 107
147 152 155 153 149 146 144 144 144 146 147 148 149 149 147 146 143 141 139 133 127 122 120 117 119 126 124 119 98 75 64 57 62 91 92 77 75 87 89 95 101 106 109
150 156 160 157 155 153 152 151 152 153 155 158 160 161 161 160 156 154 151 149 142 138 138 134 135 141 141 139 121 80 61 58 71 95 96 83 77 94 93 93 100 104 111
157 161 166 164 164 163 163 163 165 166 169 172 174 175 174 172 170 168 166 162 158 158 158 157 157 159 160 161 155 100 59 58 79 115 114 109 99 100 98 94 98 101 106
160 166 172 172 172 173 174 176 177 179 182 185 186 186 186 186 184 183 182 179 174 175 176 177 182 182 182 185 191 166 61 49 102 132 140 133 124 111 102 101 99 103 103
158 165 176 180 180 182 184 186 187 189 190 192 193 192 193 196 195 194 194 191 188 187 188 191 198 199 201 207 218 220 181 68 87 153 153 149 138 120 111 105 101 104 106
92 119 180 191 193 196 197 199 199 199 199 199 199 199 199 201 203 204 204 202 202 200 200 201 208 212 213 220 231 237 226 119 110 152 159 157 148 134 126 118 113 107 107
50 42 20 356 256 229 220 213 211 210 209 207 207 206 207 208 209 212 211 212 213 211 210 210 214 218 221 228 236 243 241 102 131 175 167 174 160 146 138 129 121 114 110
43 34 23 16 354 320 263 232 222 220 220 217 215 214 212 212 213 216 218 216 220 219 217 217 219 222 227 235 241 245 243 133 141 164 178 182 165 155 147 140 133 127 121
35 29 29 19 356 341 313 284 245 226 225 221 217 216 209 204 210 219 225 226 224 223 221 222 225 227 229 236 252 254 217 165 169 177 194 186 171 163 157 151 144 138 133
27 19 17 14 355 350 337 333 318 278 245 231 226 219 211 208 213 221 215 231 228 223 220 225 230 229 224 224 235 237 218 192 196 191 198 187 175 169 165 160 155 151 146
13 359 345 345 343 342 345 337 323 313 280 252 239 229 218 210 210 215 216 213 208 205 202 210 218 230 235 236 237 236 225 207 199 191 197 190 179 174 172 169 164 162 158
9 353 338 331 332 328 336 323 321 292 279 265 264 250 226 221 218 215 219 212 207 201 200 208 216 226 235 241 240 233 219 210 197 186 193 192 183 179 177 175 173 172 169
4 350 339 333 330 328 318 303 288 276 272 272 265 266 243 220 217 211 219 222 216 205 204 208 215 218 229 236 239 233 218 197 192 188 188 189 185 182 180 180 181 179 178
358 350 343 339 350 336 317 302 297 284 280 270 263 264 259 238 220 210 213 221 220 209 203 210 224 218 234 239 240 232 215 194 185 187 185 181 184 186 183 185 185 184 185
358 352 346 348 345 335 324 309 298 290 287 278 272 266 261 251 230 214 213 221 217 208 197 201 208 212 234 242 241 228 205 184 182 183 182 181 182 183 188 189 187 189 189
359 351 347 342 341 335 327 317 308 300 289 279 277 271 266 261 246 227 225 223 208 205 202 209 203 193 213 229 231 223 195 177 176 180 183 185 187 182 180 191 190 190 193
355 352 351 347 344 340 334 325 317 312 299 284 273 269 268 259 249 239 238 232 215 207 205 203 195 192 200 208 220 215 201 183 173 179 186 184 187 186 182 185 187 196 198
355 356 355 352 345 345 338 330 319 311 301 295 283 277 278 269 255 237 238 235 221 214 211 203 191 188 200 188 145 250 337 222 181 182 181 178 185 188 181 186 188 186 195
349 350 350 348 341 337 326 309 286 286 283 276 283 289 277 272 264 252 232 229 222 220 220 207 193 190 196 182 161 145 168 329 283 198 175 177 183 181 183 192 191 190 189
343 344 343 337 336 334 330 322 319 315 309 313 309 297 284 277 265 257 246 234 227 216 221 212 199 192 193 194 185 162 161 199 215 246 188 171 167 168 182 186 192 195 194
329 331 333 333 333 334 336 338 336 328 313 298 298 292 294 284 275 265 254 243 236 223 220 219 208 195 181 186 194 202 174 157 157 182 223 177 163 161 177 184 192 195 195
322 326 329 335 333 335 339 339 337 331 310 302 308 313 311 303 289 280 262 249 242 231 222 215 208 200 191 184 179 170 176 166 153 150 173 180 159 166 168 177 184 192 194
319 326 332 336 333 337 341 342 344 340 336 335 336 333 326 314 305 301 285 263 250 237 228 220 211 205 201 192 186 178 170 171 179 166 159 166 177 185 175 180 176 184 187